This is the latest recevied weather packets stored in our database for station/object KD0SBN. If no packets are shown the sender has not sent any weather packets the latest 10 day(s).
| Time | Temp. | Humidity | Pressure | Rain* | Wind** | Luminosity | Snow |
|---|---|---|---|---|---|---|---|
| 1778278215 | 23.89° C | 31% | 1012.8 hPa | 0 mm | - | - | - |
| 1778277912 | 24.44° C | 32% | 1013 hPa | 0 mm | - | - | - |
| 1778277609 | 24.44° C | 32% | 1012.7 hPa | 0 mm | - | - | - |
| 1778277305 | 24.44° C | 31% | 1012.9 hPa | 0 mm | - | - | - |
| 1778277002 | 23.89° C | 32% | 1013.1 hPa | 0 mm | - | - | - |
| 1778276700 | 24.44° C | 32% | 1013.3 hPa | 0 mm | - | - | - |
| 1778276395 | 23.89° C | 32% | 1013.1 hPa | 0 mm | - | - | - |
| 1778276093 | 23.89° C | 32% | 1013.1 hPa | 0 mm | - | - | - |
| 1778275788 | 23.89° C | 32% | 1013.1 hPa | 0 mm | - | - | - |
| 1778275485 | 23.33° C | 33% | 1013.1 hPa | 0 mm | - | - | - |
| 1778275181 | 23.33° C | 34% | 1013.5 hPa | 0 mm | - | - | - |
| 1778274877 | 23.33° C | 34% | 1013.4 hPa | 0 mm | - | - | - |
| 1778274574 | 23.89° C | 33% | 1013.4 hPa | 0 mm | - | - | - |
| 1778274271 | 23.33° C | 35% | 1013.3 hPa | 0 mm | - | - | - |
| 1778273967 | 23.89° C | 34% | 1013.6 hPa | 0 mm | - | - | - |
| 1778273664 | 23.33° C | 35% | 1013.7 hPa | 0 mm | - | - | - |
| 1778273360 | 23.33° C | 33% | 1013.5 hPa | 0 mm | - | - | - |
| 1778273058 | 23.33° C | 33% | 1013.7 hPa | 0 mm | - | - | - |
| 1778272753 | 22.78° C | 34% | 1014 hPa | 0 mm | - | - | - |
| 1778272450 | 23.33° C | 35% | 1013.8 hPa | 0 mm | - | - | - |
| 1778272146 | 22.78° C | 35% | 1013.7 hPa | 0 mm | - | - | - |
| 1778271843 | 23.33° C | 34% | 1014 hPa | 0 mm | - | - | - |
| 1778271540 | 23.33° C | 34% | 1014 hPa | 0 mm | - | - | - |
| 1778271237 | 23.33° C | 34% | 1014.1 hPa | 0 mm | - | - | - |
| 1778270933 | 22.22° C | 35% | 1014.2 hPa | 0 mm | - | - | - |
* Rain latest hour (hover to see other rain measurements)
** Current wind speed in m/s (hover to see current wind gust speed)